SCP
0 0 0 0 0 0 0 0 0 0 0 0 0 0 0 0 0 0 0 0 0 0 0 0 0 0 0 0 0 0 0 0 0 0 0 0 0 0 0 0 0 0 0 0
0 0 0 0 0 0 0 0 0 0 0 0 0 0 0 0 0 0 0 0 0 0 0 0 0 0 0 0 0 0 0 0 0 0 0 0 0 0 0 0 0 0 0 0
0 0 0 0 0 0 0 0 0 0 0 0 0 0 0 0 0 0 0 0 0 0 0 0 0 0 0 0 0 0 0 0 0 0 0 0 0 0 0 0 0 0 0 0
0 0 0 0 0 0 0 0 0 0 0 0 0 0 0 0 0 0 0 0 0 0 0 0 0 0 0 0 0 0 0 0 0 0 0 0 0 0 0 0 0 0 0 0
0 0 0 0 0 0 0 0 0 0 0 0 0 0 0 0 0 0 0 0 0 0 0 0 0 0 0 0 0 0 0 0 0 0 0 0 0 0 0 0 0 0 0 0
0 0 0 0 0 0 0 0 0 0 0 0 0 0 0 0 0 0 0 0 0 0 0 0 0 0 0 0 0 0 0 0 0 0 0 0 0 0 0 0 0 0 0 0
0 0 0 0 0 0 0 0 0 0 0 0 0 0 0 0 0 0 0 0 0 0 0 0 0 0 0 0 0 0 0 0 0 0 0 0 0 0 0 0 0 0 0 0
0 0 0 0 0 0 0 0 0 0 0 0 0 0 0 0 0 0 0 0 0 0 0 0 0 0 0 0 0 0 0 0 0 0 0 0 0 0 0 0 0 0 0 0
0 0 0 0 0 0 0 0 0 0 0 0 0 0 0 0 0 0 0 0 0 0 0 0 0 0 0 0 0 0 0 0 0 0 0 0 0 0 0 0 0 0 0 0
0 0 0 0 0 0 0 0 0 0 0 0 0 0 0 0 0 0 0 0 0 0 0 0 0 0 0 0 0 0 0 0 0 0 0 0 0 0 0 0 0 0 0 0
0 0 0 0 0 0 0 0 0 0 0 0 0 0 0 0 0 0 0 0 0 0 0 0 0 0 0 0 0 0 0 0 0 0 0 0 0 0 0 0 0 0 0 0
0 0 0 0 0 0 0 0 0 0 0 0 0 0 0 0 0 0 0 0 0 0 0 0 0 0 0 0 0 0 0 0 0 0 0 0 0 0 0 0 0 0 0 0
0 0 0 0 0 0 0 0 0 0 0 0 0 0 0 0 0 0 0 0 0 0 0 0 0 0 0 0 0 0 0 0 0 0 0 0 0 0 0 0 0 0 0 0
0 0 0 0 0 0 0 0 0 0 0 0 0 0 0 0 0 0 0 0 0 0 0 0 0 0 0 0 0 0 0 0 0 0 0 0 0 0 0 0 0 0 0 0
0 0 0 0 0 0 0 0 0 0 0 0 0 0 0 0 0 0 0 0 0 0 0 0 0 0 0 0 0 0 0 0 0 0 0 0 0 0 0 0 0 0 0 0
0 0 0 0 0 0 0 0 0 0 0 0 0 0 0 0 0 0 0 0 0 0 0 0 0 0 0 0 0 0 0 0 0 0 0 0 0 0 0 0 0 0 0 0
0 0 0 0 0 0 0 0 0 0 0 0 0 0 0 0 0 0 0 0 0 0 0 0 0 0 0 0 0 0 0 0 0 0 0 0 0 0 0 0 0 0 0 0
0 0 0 0 0 0 0 0 0 0 0 0 0 0 0 0 0 0 0 0 0 0 0 0 0 0 0 0 0 0 0 0 0 0 0 0 0 0 0 0 0 0 0 0
0 0 0 0 0 0 0 0 0 0 0 0 0 0 0 0 0 0 0 0 0 0 0 0 0 0 0 0 0 0 0 0 0 0 0 0 0 0 0 0 0 0 0 0
0 0 0 0 0 0 0 0 0 0 0 0 0 0 0 0 0 0 0 0 0 0 0 0 0 0 0 0 0 0 0 0 0 0 0 0 0 0 0 0 0 0 0 0
0 0 0 0 0 0 0 0 0 0 0 0 0 0 0 0 0 0 0 0 0 0 0 0 0 0 0 0 0 0 0 0 0 0 0 0 0 0 0 0 0 0 0 0
0 0 0 0 0 0 0 0 0 0 0 0 0 0 0 0 0 0 0 0 0 0 0 0 0 0 0 0 0 0 0 0 0 0 0 0 0 0 0 0 0 0 0 0
0 0 0 0 0 0 0 0 0 0 0 0 0 0 0 0 0 0 0 0 0 0 0 0 0 0 0 0 0 0 0 0 0 0 0 0 0 0 0 0 0 0 0 0
0 0 0 0 0 0 0 0 0 0 0 0 0 0 0 0 0 0 0 0 0 0 0 0 0 0 0 0 0 0 0 0 0 0 0 0 0 0 0 0 0 0 0 0
0 0 0 0 0 0 0 0 0 0 0 0 0 0 0 0 0 0 0 0 0 0 0 0 0 0 0 0 0 0 0 0 0 0 0 0 0 0 0 0 0 0 0 0
0 0 0 0 0 0 0 0 0 0 0 0 0 0 0 0 0 0 0 0 0 0 0 0 0 0 0 0 0 0 0 0 0 0 0 0 0 0 0 0 0 0 0 0
0 0 0 0 0 0 0 0 0 0 0 0 0 0 0 0 0 0 0 0 0 0 0 0 0 0 0 0 0 0 0 0 0 0 0 0 0 0 0 0 0 0 0 0
Wind_Speed
2 3 4 5 7 8 10 10 11 11 10 8 4 2 2 2 2 3 4 4 5 5 5 6 6 6 6 6 6 5 5 6 8 8 7 7 7 7 7 7 8 8 8 9
2 2 2 4 7 8 9 8 9 8 12 5 3 1 1 2 3 4 4 5 5 5 6 7 7 7 7 7 7 6 6 7 7 7 6 7 7 7 7 7 7 7 8 9
4 3 2 10 12 12 8 8 8 12 11 2 2 0 1 2 4 3 3 4 5 5 5 6 6 6 7 8 8 7 7 7 7 6 7 7 7 6 7 7 6 7 8 8
4 5 10 9 4 9 10 10 10 10 5 2 3 3 5 4 3 2 2 4 5 5 6 5 5 6 6 7 7 7 8 8 7 7 8 7 6 7 7 5 6 6 7 7
5 5 7 9 5 7 9 9 7 9 5 1 2 4 2 2 1 1 2 3 4 4 5 6 6 6 7 7 6 7 7 8 8 8 8 8 8 7 6 5 5 5 4 6
5 6 10 10 4 3 5 7 4 5 4 2 4 3 4 1 2 3 3 3 3 4 4 5 6 6 7 7 7 8 8 9 8 7 8 8 8 7 5 4 5 4 4 4
7 7 10 9 4 4 7 9 4 5 5 4 3 4 4 3 3 3 4 4 4 4 4 5 5 5 6 7 8 8 8 9 8 7 7 7 6 5 4 4 3 3 4 3
7 8 13 5 6 8 6 4 5 5 4 3 3 4 4 4 4 5 5 4 4 4 5 4 4 4 7 8 7 7 8 9 8 7 6 5 5 4 3 3 3 3 2 3
10 10 3 4 5 4 6 6 4 4 3 2 2 3 4 4 4 5 5 5 4 5 6 5 3 3 7 8 7 8 8 8 8 7 5 4 4 4 3 2 2 2 2 2
4 5 2 2 4 4 5 5 4 3 3 2 3 5 5 5 5 5 5 5 4 5 6 7 5 4 5 7 7 7 8 8 7 6 5 4 3 2 2 2 2 2 2 2
5 2 2 1 3 4 3 2 1 1 2 3 4 5 5 6 6 6 5 4 4 5 7 8 6 6 5 6 6 7 8 7 6 5 5 3 2 2 2 2 2 2 2 1
7 7 6 5 4 4 4 3 2 2 3 2 3 5 6 6 6 5 6 5 5 5 6 7 7 7 6 5 5 7 7 6 5 4 3 2 2 1 2 1 2 1 1 0
5 4 4 3 2 1 2 0 1 1 2 2 3 3 5 6 6 6 6 6 6 7 7 7 7 8 6 6 6 6 7 7 5 4 3 2 2 1 0 2 5 6 6 4
2 3 3 2 2 3 3 3 3 2 3 3 4 5 5 6 7 7 7 6 7 7 7 6 7 8 6 6 7 7 6 6 5 4 3 2 2 1 1 1 1 2 6 9
2 2 3 3 3 4 4 4 3 3 4 5 5 5 6 8 9 9 8 7 6 6 6 6 7 8 6 7 7 7 5 4 3 3 2 1 1 1 1 2 2 2 3 5
3 3 3 3 2 3 3 3 3 5 5 7 7 7 8 8 9 8 7 5 6 7 6 6 7 7 7 7 7 5 4 4 3 2 1 0 1 2 2 2 3 3 3 3
6 5 4 3 2 0 1 2 3 5 6 7 8 8 8 8 8 7 6 5 4 5 5 6 7 7 7 7 6 4 3 2 2 1 1 2 2 2 3 3 3 3 3 5
3 3 3 2 2 2 2 3 4 5 6 7 8 8 8 7 8 8 6 5 4 5 5 5 7 6 6 6 4 3 2 2 2 2 2 3 3 3 4 4 4 4 3 5
4 3 2 1 1 1 2 3 4 5 6 6 7 7 7 7 6 5 4 4 4 5 6 7 9 7 6 6 5 3 2 2 3 3 3 5 5 4 4 4 4 4 4 4
3 2 2 1 0 1 2 3 4 5 5 5 6 5 5 5 4 4 2 2 3 4 6 6 6 5 5 6 6 3 3 4 4 4 4 4 4 4 4 4 4 3 3 3
3 2 1 0 1 2 2 3 3 4 5 4 4 4 4 4 3 2 1 2 4 5 5 5 4 4 5 5 6 4 4 4 4 4 4 4 4 4 3 3 3 2 2 2
2 1 1 0 0 2 2 2 2 3 3 3 3 3 2 3 3 2 2 2 4 6 4 4 4 5 6 6 5 5 5 5 4 4 4 3 3 3 2 2 2 2 1 1
2 2 1 1 1 1 2 2 2 2 2 3 3 3 3 2 3 2 2 4 4 5 5 4 6 8 8 6 5 5 5 5 4 3 3 3 2 2 1 2 1 1 2 2
2 2 1 1 1 2 2 2 2 1 2 2 3 3 3 2 2 3 3 5 6 6 4 6 8 9 7 4 4 4 4 3 3 3 2 2 2 2 2 2 2 2 2 3
3 2 2 2 2 1 1 1 2 2 2 2 3 4 3 2 2 3 4 4 6 6 4 6 8 8 5 3 3 3 3 3 2 2 2 2 2 2 2 3 3 3 3 4
3 2 2 2 1 0 0 1 1 1 2 2 2 2 3 3 3 3 3 4 5 5 4 4 4 5 3 3 3 3 3 3 3 3 3 3 3 4 4 4 5 5 4 5
3 3 2 2 1 1 1 1 1 1 1 2 2 2 3 3 3 4 4 4 4 4 4 4 4 4 4 4 4 4 4 4 4 4 4 4 4 5 5 6 5 5 5 6
Wind_Direction
147 126 142 178 193 192 201 210 215 235 231 224 222 255 299 340 30 47 33 18 8 356 344 341 341 338 334 324 324 321 307 288 277 278 276 272 266 260 253 243 238 233 229 228
184 180 167 234 228 214 220 222 234 257 260 229 205 231 343 12 40 37 20 9 359 351 346 341 337 332 330 327 326 322 305 291 289 290 286 277 271 265 258 251 244 234 230 228
198 156 127 246 221 205 211 207 199 235 248 212 245 214 124 86 66 57 26 359 348 340 332 328 329 329 326 322 323 323 312 305 303 299 291 284 280 272 262 256 248 240 236 229
147 145 219 238 196 194 208 225 216 231 239 184 183 135 109 104 98 55 343 330 326 326 323 321 321 322 318 316 317 315 312 311 311 308 300 295 286 274 267 258 248 245 241 234
160 199 266 287 242 183 189 232 226 228 227 192 153 127 142 111 88 283 294 299 300 305 305 311 317 320 319 316 316 313 310 310 310 306 301 298 290 283 275 265 257 246 242 233
156 178 227 244 234 182 139 242 226 181 174 159 130 164 217 261 303 285 289 288 292 298 302 308 313 319 316 314 315 312 310 307 305 299 293 290 287 286 280 264 259 252 249 238
184 207 248 244 221 128 178 230 170 145 142 140 155 193 234 280 290 286 286 285 288 292 293 296 305 311 305 306 304 305 307 305 302 298 292 288 289 285 282 275 269 259 257 254
180 206 242 209 156 184 196 134 136 140 153 166 200 235 253 265 273 283 289 291 292 289 289 291 299 302 299 298 303 309 307 303 301 299 297 294 292 294 288 275 269 267 266 273
192 211 230 160 167 150 130 136 153 163 183 192 231 252 260 264 271 276 278 284 284 284 292 295 294 289 291 299 312 310 305 300 299 299 295 290 285 286 290 275 262 265 260 267
203 233 195 134 121 120 130 145 163 177 194 208 247 269 277 279 282 284 283 285 287 293 294 297 300 290 281 297 307 301 296 296 295 294 294 292 285 272 265 264 266 272 271 272
206 193 116 159 162 153 150 145 157 217 230 246 265 276 280 287 290 291 293 294 293 289 289 294 304 298 298 304 308 297 289 286 287 283 280 285 283 270 262 248 224 235 247 247
202 191 172 191 185 171 173 195 218 243 264 271 269 282 294 292 295 301 304 311 307 299 295 298 302 300 303 307 304 293 290 286 284 281 274 264 262 320 43 56 63 63 110 140
169 169 170 173 147 103 157 142 336 291 284 308 339 337 317 305 310 313 310 312 305 300 298 299 300 299 305 310 301 283 277 280 280 275 266 253 239 211 170 46 49 47 47 52
122 139 173 165 127 60 52 25 10 17 31 27 4 346 330 315 313 310 308 312 308 303 299 298 298 297 308 310 299 286 277 274 272 272 264 249 231 217 179 135 57 18 25 41
107 121 152 116 95 66 38 17 8 0 359 354 353 339 329 318 310 308 311 312 307 296 295 302 300 301 315 309 299 290 282 275 275 276 275 256 187 132 110 100 88 52 24 22
121 97 96 122 118 57 28 15 347 330 337 331 328 326 319 307 299 298 301 305 302 299 304 303 298 303 310 305 300 293 286 287 290 279 282 85 101 108 105 99 88 67 43 18
155 182 180 190 193 280 334 334 316 314 316 311 310 311 307 302 298 296 298 299 292 293 300 300 301 305 305 303 298 295 298 310 333 357 41 62 77 88 93 96 91 76 42 44
94 108 128 163 197 260 290 307 306 302 298 299 302 301 299 297 295 298 300 303 305 304 308 311 304 311 316 314 310 308 314 336 13 42 54 63 68 69 77 84 86 80 51 38
98 103 98 93 50 279 277 284 288 289 292 294 294 293 291 288 288 293 302 313 320 317 320 320 330 341 332 331 341 347 6 33 47 52 59 69 69 65 69 75 74 68 61 52
109 106 104 91 329 269 272 281 289 292 292 292 291 292 296 299 300 302 316 322 316 307 310 321 332 337 343 353 7 12 29 48 59 60 60 62 67 66 65 67 67 65 60 56
130 127 125 134 304 303 290 291 293 297 303 306 299 294 297 307 314 319 335 332 328 330 335 344 350 351 358 8 19 29 38 46 52 55 58 61 65 65 63 61 59 55 50 43
145 149 152 145 313 312 313 315 311 313 329 338 338 336 342 349 353 5 16 346 329 343 351 352 0 13 19 22 26 33 38 43 46 48 51 51 54 56 51 44 38 26 17 7
154 158 153 168 221 293 341 356 358 4 6 1 357 354 356 0 359 357 345 343 340 358 4 360 15 27 25 25 25 30 32 33 34 35 35 35 32 26 14 3 349 336 325 318
136 124 117 101 103 78 34 2 9 22 20 10 5 2 2 5 4 1 345 343 355 3 1 360 15 22 21 18 16 18 18 15 12 10 8 3 355 341 324 311 302 297 290 287
126 112 97 97 95 71 337 5 44 34 27 15 7 6 5 2 350 336 339 345 352 358 354 355 3 7 7 359 356 351 345 338 330 325 318 311 302 294 286 281 276 275 272 269
124 119 113 107 114 110 3 60 62 20 9 359 348 347 348 346 343 336 334 336 339 340 339 337 337 337 333 328 323 316 310 307 306 298 287 284 279 276 272 270 268 265 264 262
108 105 103 84 48 36 48 63 60 8 346 332 319 324 330 331 331 329 327 323 323 320 318 316 314 310 305 302 299 294 289 285 282 279 276 271 267 264 265 265 264 262 262 261